Date String (YYYY-MM-DD hh:mm:ss) UTC,Instrument flags,absolute air pressure of the measurement (hPa),sample flow rate (lpm),inlet stack bypass flow (lpm),air temperature of the measurement (°C),ambient temperature measured by the external sensor (°C),aerosol sample conditioner tube jacket temperature (°C),OPC LED temperature (°C),internal box temperature (°C),relative humidity of the measurement (%),span deviation,mass concentration of particles derived from Lorenz-Mie calculation of OPC scattering (μg/m³),mass concentration of particles derived from Lorenz-Mie calculation of OPC scattering (μg/m³),mass concentration of particles derived from Lorenz-Mie calculation of OPC scattering (μg/m³)
DateTimeUTC,F1_M11,P_M11,Q1_M11,Q2_M11,T1_M11,T2_M11,T3_M11,T4_M11,T5_M11,U1_M11,ZSPAN_M11,X2_M11,X0_M11,X1_M11
2024-05-24 19:00:00,SystemResetWarning,0825.2,5.01,000.00,026.4,025.7,000.0,034.5,028.2,012.2,0000.0,0003.17,0012.29,0001.80
2024-05-24 19:01:00,SystemResetWarning,0825.3,5.01,000.00,026.4,025.7,000.0,034.6,028.2,012.9,0000.0,0003.13,0012.47,0001.79
2024-05-24 19:02:00,SystemResetWarning,0825.2,5.00,000.00,026.4,025.7,000.0,034.6,028.2,012.9,0000.0,0003.13,0013.70,0001.77
2024-05-24 19:03:00,SystemResetWarning,0825.2,5.00,000.00,026.4,025.7,000.0,034.6,028.2,013.1,0000.0,0003.10,0013.81,0001.75
2024-05-24 19:04:00,SystemResetWarning,0825.3,4.99,000.00,026.4,025.7,000.0,034.6,028.2,013.0,0000.0,0003.13,0014.00,0001.72
2024-05-24 19:05:00,SystemResetWarning,0825.3,5.00,000.00,026.5,025.8,000.0,034.6,028.2,012.8,0000.0,0003.13,0013.91,0001.70
2024-05-24 19:06:00,SystemResetWarning,0825.2,5.00,000.00,026.5,025.8,000.0,034.6,028.2,013.0,0000.0,0003.14,0014.41,0001.67
2024-05-24 19:07:00,SystemResetWarning,0825.2,5.00,000.00,026.5,025.8,000.0,034.6,028.2,013.2,0000.0,0003.12,0016.86,0001.64
2024-05-24 19:08:00,SystemResetWarning,0825.1,5.01,000.00,026.5,025.8,000.0,034.7,028.3,012.5,0000.0,0003.10,0016.43,0001.61
2024-05-24 19:09:00,SystemResetWarning,0825.1,5.00,000.00,026.5,025.8,000.0,034.7,028.3,011.9,0000.0,0003.05,0016.06,0001.57
2024-05-24 19:10:00,SystemResetWarning,0825.1,4.99,000.00,026.5,025.8,000.0,034.7,028.3,011.8,0000.0,0002.98,0015.74,0001.52
2024-05-24 19:11:00,SystemResetWarning,0825.1,4.99,000.00,026.5,025.8,000.0,034.7,028.3,012.8,0000.0,0002.97,0016.02,0001.49
2024-05-24 19:12:00,SystemResetWarning,0825.1,5.01,000.00,026.5,025.8,000.0,034.7,028.3,012.0,0000.0,0003.00,0015.83,0001.48
2024-05-24 19:13:00,SystemResetWarning,0825.1,5.00,000.00,026.5,025.8,000.0,034.7,028.3,013.2,0000.0,0002.93,0014.58,0001.47
2024-05-24 19:14:00,SystemResetWarning,0825.1,5.00,000.00,026.6,025.8,000.0,034.7,028.3,011.9,0000.0,0002.88,0014.08,0001.45
2024-05-24 19:15:00,SystemResetWarning,0825.1,5.00,000.00,026.6,025.8,000.0,034.7,028.3,012.4,0000.0,0002.93,0014.34,0001.43
2024-05-24 19:16:00,SystemResetWarning,0825.1,5.00,000.00,026.6,025.9,000.0,034.7,028.3,012.4,0000.0,0002.93,0015.93,0001.41
2024-05-24 19:17:00,SystemResetWarning,0825.0,5.00,000.00,026.6,025.9,000.0,034.8,028.3,012.3,0000.0,0002.97,0017.17,0001.41
2024-05-24 19:18:00,SystemResetWarning,0825.0,4.99,000.00,026.6,025.9,000.0,034.8,028.3,012.6,0000.0,0002.99,0015.62,0001.41
2024-05-24 19:19:00,SystemResetWarning,0824.9,4.99,000.00,026.6,025.9,000.0,034.8,028.4,013.3,0000.0,0002.98,0015.85,0001.40
2024-05-24 19:20:00,SystemResetWarning,0824.9,5.00,000.00,026.6,025.9,000.0,034.8,028.4,012.4,0000.0,0003.00,0016.39,0001.41
2024-05-24 19:21:00,SystemResetWarning,0825.0,5.00,000.00,026.6,025.9,000.0,034.8,028.4,012.4,0000.0,0002.99,0016.31,0001.41
2024-05-24 19:22:00,SystemResetWarning,0824.9,5.01,000.00,026.6,025.9,000.0,034.8,028.4,012.5,0000.0,0003.02,0016.39,0001.42
2024-05-24 19:23:00,SystemResetWarning,0824.9,5.01,000.00,026.7,025.9,000.0,034.8,028.4,012.7,0000.0,0003.00,0015.92,0001.40
2024-05-24 19:24:00,SystemResetWarning,0824.9,5.00,000.00,026.7,025.9,000.0,034.8,028.4,012.6,0000.0,0003.03,0017.33,0001.40
2024-05-24 19:25:00,SystemResetWarning,0824.9,5.00,000.00,026.7,026.0,000.0,034.8,028.4,012.9,0000.0,0003.05,0017.99,0001.40
2024-05-24 19:26:00,SystemResetWarning,0824.9,5.00,000.00,026.7,026.0,000.0,034.9,028.4,011.7,0000.0,0002.90,0017.98,0001.40
2024-05-24 19:27:00,SystemResetWarning,0824.9,5.00,000.00,026.7,026.0,000.0,034.9,028.4,011.9,0000.0,0002.81,0017.43,0001.39
2024-05-24 19:28:00,SystemResetWarning,0824.9,5.00,000.00,026.7,026.0,000.0,034.9,028.5,012.2,0000.0,0002.67,0015.53,0001.38
2024-05-24 19:29:00,SystemResetWarning,0824.9,4.99,000.00,026.7,026.0,000.0,034.9,028.5,012.1,0000.0,0002.69,0014.66,0001.37
2024-05-24 19:30:00,SystemResetWarning,0824.9,5.00,000.00,026.7,026.0,000.0,034.9,028.5,012.3,0000.0,0002.67,0014.18,0001.35
2024-05-24 19:31:00,SystemResetWarning,0824.9,5.00,000.00,026.7,026.0,000.0,034.9,028.5,012.1,0000.0,0002.72,0014.56,0001.35
2024-05-24 19:32:00,SystemResetWarning,0824.9,4.99,000.00,026.8,026.0,000.0,034.9,028.5,011.7,0000.0,0002.72,0014.08,0001.34
2024-05-24 19:33:00,SystemResetWarning,0824.9,5.01,000.00,026.8,026.0,000.0,034.9,028.5,011.6,0000.0,0002.71,0013.51,0001.32
2024-05-24 19:34:00,SystemResetWarning,0824.9,5.01,000.00,026.8,026.0,000.0,035.0,028.5,012.2,0000.0,0002.67,0013.79,0001.31
2024-05-24 19:35:00,SystemResetWarning,0824.8,5.01,000.00,026.8,026.1,000.0,035.0,028.5,011.6,0000.0,0002.63,0013.88,0001.29
2024-05-24 19:36:00,SystemResetWarning,0824.8,4.99,000.00,026.8,026.1,000.0,035.0,028.5,012.0,0000.0,0002.64,0013.12,0001.28
2024-05-24 19:37:00,SystemResetWarning,0824.8,4.99,000.00,026.8,026.1,000.0,035.0,028.5,012.1,0000.0,0002.75,0013.60,0001.27
2024-05-24 19:38:00,SystemResetWarning,0824.8,4.99,000.00,026.8,026.1,000.0,035.0,028.6,011.6,0000.0,0002.81,0013.20,0001.27
2024-05-24 19:39:00,SystemResetWarning,0824.7,5.00,000.00,026.8,026.1,000.0,035.0,028.6,012.1,0000.0,0002.84,0013.61,0001.26
2024-05-24 19:40:00,SystemResetWarning,0824.7,5.00,000.00,026.8,026.1,000.0,035.0,028.6,012.3,0000.0,0002.78,0013.71,0001.25
2024-05-24 19:41:00,SystemResetWarning,0824.8,5.00,000.00,026.8,026.1,000.0,035.0,028.6,012.5,0000.0,0002.75,0014.13,0001.25
2024-05-24 19:42:00,SystemResetWarning,0824.8,5.01,000.00,026.9,026.1,000.0,035.0,028.6,012.1,0000.0,0002.70,0013.35,0001.23
2024-05-24 19:43:00,SystemResetWarning,0824.7,5.00,000.00,026.9,026.2,000.0,035.0,028.6,012.0,0000.0,0002.67,0013.31,0001.21
2024-05-24 19:44:00,SystemResetWarning,0824.8,5.00,000.00,026.9,026.2,000.0,035.0,028.6,012.2,0000.0,0002.68,0013.54,0001.19
2024-05-24 19:45:00,SystemResetWarning,0824.8,5.00,000.00,026.9,026.2,000.0,035.0,028.7,012.4,0000.0,0002.67,0013.70,0001.19
2024-05-24 19:46:00,SystemResetWarning,0824.8,5.00,000.00,026.9,026.2,000.0,035.1,028.7,012.0,0000.0,0002.68,0014.05,0001.19
2024-05-24 19:47:00,SystemResetWarning,0824.8,4.99,000.00,026.9,026.2,000.0,035.1,028.7,012.3,0000.0,0002.74,0014.55,0001.19
2024-05-24 19:48:00,SystemResetWarning,0824.8,5.00,000.00,026.9,026.2,000.0,035.1,028.7,013.3,0000.0,0002.64,0013.96,0001.17
2024-05-24 19:49:00,SystemResetWarning,0824.7,5.00,000.00,026.9,026.2,000.0,035.1,028.7,013.0,0000.0,0002.60,0013.58,0001.15
2024-05-24 19:50:00,SystemResetWarning,0824.7,5.00,000.00,027.0,026.2,000.0,035.1,028.7,012.1,0000.0,0002.58,0013.13,0001.13
2024-05-24 19:51:00,SystemResetWarning,0824.7,5.01,000.00,027.0,026.2,000.0,035.1,028.7,012.5,0000.0,0002.59,0013.39,0001.11
2024-05-24 19:52:00,SystemResetWarning,0824.7,5.01,000.00,027.0,026.3,000.0,035.2,028.7,012.5,0000.0,0002.55,0012.33,0001.10
2024-05-24 19:53:00,SystemResetWarning,0824.7,4.98,000.00,027.0,026.3,000.0,035.2,028.7,011.6,0000.0,0002.53,0012.32,0001.09
2024-05-24 19:54:00,SystemResetWarning,0824.7,5.00,000.00,027.0,026.3,000.0,035.2,028.7,012.7,0000.0,0002.54,0011.93,0001.08
2024-05-24 19:55:00,SystemResetWarning,0824.7,4.99,000.00,027.0,026.3,000.0,035.2,028.7,012.6,0000.0,0002.58,0012.46,0001.09
2024-05-24 19:56:00,SystemResetWarning,0824.7,5.00,000.00,027.0,026.3,000.0,035.2,028.7,012.4,0000.0,0002.60,0011.99,0001.08
2024-05-24 19:57:00,SystemResetWarning,0824.7,5.01,000.00,027.0,026.3,000.0,035.2,028.7,012.2,0000.0,0002.61,0010.90,0001.07
2024-05-24 19:58:00,SystemResetWarning,0824.7,5.01,000.00,027.0,026.3,000.0,035.2,028.8,011.7,0000.0,0002.51,0010.51,0001.05
2024-05-24 19:59:00,SystemResetWarning,0824.5,5.00,000.00,027.0,026.3,000.0,035.2,028.8,012.1,0000.0,0002.43,0010.59,0001.04
